Weather reports worldwide

Advertisment
Meppen, Germany (10304): temperature & dewpoint: 06.07.2020 14:00:00 - 12.07.2020 14:00:00 (CEST)Meppen, Germany (10304): wind speed & gusts: 06.07.2020 14:00:00 - 12.07.2020 14:00:00 (CEST)Meppen, Germany (10304): wind direction: 06.07.2020 14:00:00 - 12.07.2020 14:00:00 (CEST)Meppen, Germany (10304): reduced air pressure: 06.07.2020 14:00:00 - 12.07.2020 14:00:00 (CEST)Meppen, Germany (10304): visibility: 06.07.2020 14:00:00 - 12.07.2020 14:00:00 (CEST)
Date & Time tt [°C] td [°C] ff [km/h] ff [kn] fx [km/h] fx [kn] dd ppp [hPa] vv [km]
12.07.2020 14:00:00 20,0 6,9 7 4 - - W 1028,6 -
12.07.2020 13:00:00 19,6 7,4 7 4 - - NW 1028,7 -
12.07.2020 12:00:00 17,6 7,4 4 2 - - ENE 1028,8 -
12.07.2020 11:00:00 17,0 7,4 7 4 - - NW 1028,8 -
12.07.2020 10:00:00 16,1 8,9 7 4 - - NNW 1028,9 -
12.07.2020 09:00:00 15,2 9,5 7 4 - - NW 1028,4 -
12.07.2020 08:00:00 13,4 9,7 4 2 - - N 1027,8 -
12.07.2020 07:00:00 10,2 9,8 0 0 - - N 1027,6 -
12.07.2020 06:00:00 7,9 7,4 0 0 - - N 1027,2 -
12.07.2020 05:00:00 7,9 7,4 4 2 - - NNW 1027,1 -
12.07.2020 04:00:00 8,6 8,2 0 0 - - N 1027,0 -
12.07.2020 03:00:00 9,8 9,2 4 2 - - N 1027,1 -
12.07.2020 02:00:00 11,0 10,5 4 2 - - WNW 1026,8 -
12.07.2020 01:00:00 10,9 10,1 0 0 - - N 1026,6 -
12.07.2020 00:00:00 11,3 10,5 4 2 - - N 1026,7 -
11.07.2020 23:00:00 12,0 10,7 4 2 - - NNE 1026,5 -
11.07.2020 22:00:00 14,0 11,2 4 2 - - SSW 1026,1 -
11.07.2020 21:00:00 15,3 10,7 4 2 - - N 1025,7 -
11.07.2020 20:00:00 17,0 9,4 14 8 - - N 1025,3 -
11.07.2020 19:00:00 17,6 9,2 7 4 - - N 1024,9 -
11.07.2020 18:00:00 18,7 9,2 11 6 - - NNE 1024,6 -
11.07.2020 17:00:00 17,1 8,0 11 6 - - NNW 1024,6 -
11.07.2020 16:00:00 17,4 9,2 7 4 - - NW 1024,6 -
11.07.2020 15:00:00 17,0 9,2 7 4 - - WNW 1024,3 -
11.07.2020 14:00:00 17,4 9,1 11 6 - - W 1024,1 -
11.07.2020 13:00:00 16,8 9,6 11 6 - - W 1023,7 -
11.07.2020 12:00:00 17,2 8,8 11 6 - - W 1023,6 -
11.07.2020 11:00:00 16,1 8,8 11 6 - - WNW 1023,3 -
11.07.2020 10:00:00 15,9 8,9 11 6 - - W 1023,1 -
11.07.2020 09:00:00 14,2 10,6 11 6 - - W 1022,8 -
11.07.2020 08:00:00 11,6 9,8 11 6 - - WSW 1022,5 -
11.07.2020 07:00:00 10,2 9,2 11 6 - - W 1022,2 -
11.07.2020 06:00:00 9,0 8,6 11 6 - - W 1021,7 -
11.07.2020 05:00:00 7,9 7,5 4 2 - - WSW 1021,4 -
11.07.2020 04:00:00 8,2 7,8 4 2 - - W 1021,2 -
11.07.2020 03:00:00 8,2 7,8 7 4 - - WSW 1021,0 -
11.07.2020 02:00:00 8,4 7,8 4 2 - - W 1020,6 -
11.07.2020 01:00:00 8,7 8,0 4 2 - - W 1019,9 -
11.07.2020 00:00:00 9,1 8,2 4 2 - - W 1019,4 -
10.07.2020 23:00:00 10,1 8,7 4 2 - - W 1018,9 -
10.07.2020 22:00:00 11,6 9,5 4 2 - - NW 1018,3 -
10.07.2020 21:00:00 14,8 8,0 7 4 - - NNW 1017,6 -
10.07.2020 20:00:00 15,6 8,9 11 6 - - NNW 1017,1 -
10.07.2020 19:00:00 16,1 9,1 11 6 - - WNW 1016,4 -
10.07.2020 18:00:00 14,7 11,6 7 4 - - NNW 1016,2 -
10.07.2020 17:00:00 14,3 11,3 11 6 - - W 1015,5 -
10.07.2020 16:00:00 15,0 12,2 7 4 - - WNW 1014,7 -
10.07.2020 15:00:00 13,2 11,8 7 4 - - NW 1013,9 -
10.07.2020 14:00:00 15,2 11,1 14 8 - - NNW 1012,5 -
10.07.2020 13:00:00 15,1 12,5 11 6 - - NNW 1011,2 20
10.07.2020 12:00:00 13,3 12,2 11 6 - - N 1010,2 9
10.07.2020 11:00:00 13,0 11,9 14 8 - - NNW 1008,8 10
10.07.2020 10:00:00 13,3 12,3 11 6 - - N 1007,5 12
10.07.2020 09:00:00 13,1 12,3 11 6 - - N 1006,5 3,0
10.07.2020 08:00:00 13,7 12,9 9 5 - - N 1006,2 3,3
10.07.2020 07:00:00 16,1 15,3 13 7 - - SW 1005,9 3,2
10.07.2020 06:00:00 16,3 15,5 14 8 - - SW 1006,1 8
10.07.2020 05:00:00 16,3 15,5 11 6 - - SW 1006,8 -
10.07.2020 04:00:00 16,2 15,6 11 6 - - SSW 1007,0 -
10.07.2020 03:00:00 16,2 15,6 11 6 - - SSW 1008,1 -
10.07.2020 02:00:00 16,0 15,5 7 4 - - N 1008,5 -
10.07.2020 01:00:00 15,2 14,8 4 2 - - N 1009,3 -
10.07.2020 00:00:00 15,4 14,9 4 2 - - ESE 1010,0 -
09.07.2020 23:00:00 15,2 14,7 4 2 - - S 1010,5 -
09.07.2020 22:00:00 15,1 14,5 4 2 - - NE 1010,6 -
09.07.2020 21:00:00 15,1 14,5 4 2 - - NNE 1010,8 -
09.07.2020 20:00:00 15,9 15,1 11 6 - - N 1011,0 -
09.07.2020 19:00:00 16,7 15,9 18 10 - - WSW 1010,8 -
09.07.2020 18:00:00 16,8 15,8 18 10 - - W 1010,9 -
09.07.2020 17:00:00 17,0 16,2 14 8 - - W 1010,9 -
09.07.2020 16:00:00 17,4 16,5 18 10 - - W 1010,8 4,5
09.07.2020 15:00:00 17,2 16,2 18 10 - - W 1010,9 4,0
09.07.2020 14:00:00 17,1 16,3 18 10 - - W 1010,7 4,3
09.07.2020 13:00:00 17,7 16,3 18 10 - - WSW 1010,4 10
09.07.2020 12:00:00 17,1 16,2 18 10 - - WSW 1010,4 3,7
09.07.2020 11:00:00 15,7 15,3 5 3 - - SW 1010,5 6
09.07.2020 10:00:00 14,0 13,4 4 2 - - NNW 1010,8 4,3
09.07.2020 09:00:00 13,4 12,8 7 4 - - ENE 1011,4 2,8
09.07.2020 08:00:00 13,1 12,5 7 4 - - N 1011,8 3,5
09.07.2020 07:00:00 12,9 12,3 7 4 - - ENE 1012,7 2,3
09.07.2020 06:00:00 12,8 12,2 7 4 - - ENE 1013,3 2,7
09.07.2020 05:00:00 12,9 12,3 7 4 - - NE 1013,6 -
09.07.2020 04:00:00 13,1 12,3 7 4 - - NE 1014,2 -
09.07.2020 03:00:00 13,2 12,4 7 4 - - ENE 1014,7 -
09.07.2020 02:00:00 13,5 12,7 4 2 - - N 1014,8 -
09.07.2020 01:00:00 13,7 13,1 4 2 - - N 1015,2 -
09.07.2020 00:00:00 13,7 12,9 4 2 - - N 1015,8 -
08.07.2020 23:00:00 13,7 12,8 4 2 - - N 1015,6 -
08.07.2020 22:00:00 13,9 12,8 4 2 - - N 1015,7 -
08.07.2020 21:00:00 14,1 12,7 4 2 - - N 1015,7 -
08.07.2020 20:00:00 14,3 13,0 4 2 - - N 1015,9 -
08.07.2020 19:00:00 14,5 12,3 4 2 - - N 1015,9 -
08.07.2020 18:00:00 14,9 12,1 4 2 - - NE 1015,9 -
08.07.2020 17:00:00 14,5 12,4 4 2 - - E 1016,1 -
08.07.2020 16:00:00 14,2 12,4 7 4 - - NE 1016,0 17
08.07.2020 15:00:00 13,9 12,3 5 3 - - NE 1015,7 8
08.07.2020 14:00:00 13,2 11,9 7 4 - - NE 1015,6 4,5
08.07.2020 13:00:00 13,0 11,7 7 4 - - NE 1015,5 7
08.07.2020 12:00:00 12,9 11,7 4 2 - - NW 1015,6 3,5
08.07.2020 11:00:00 12,8 11,3 4 2 - - N 1015,3 4,3
08.07.2020 10:00:00 12,7 10,8 2 1 - - S 1015,1 10
08.07.2020 09:00:00 12,0 11,0 7 4 - - SW 1015,0 4,3
08.07.2020 08:00:00 11,8 10,8 7 4 - - SW 1014,7 7
08.07.2020 07:00:00 11,3 10,5 4 2 - - SSW 1014,9 5
08.07.2020 06:00:00 11,0 10,2 4 2 - - SW 1015,1 3,2
08.07.2020 05:00:00 11,0 10,1 7 4 - - WSW 1015,3 -
08.07.2020 04:00:00 11,5 10,3 4 2 - - WSW 1015,8 -
08.07.2020 03:00:00 11,6 10,4 7 4 - - W 1016,0 -
08.07.2020 02:00:00 11,8 10,5 4 2 - - SW 1016,3 -
08.07.2020 01:00:00 11,9 10,5 4 2 - - WSW 1016,6 -
08.07.2020 00:00:00 11,7 10,5 7 4 - - WSW 1017,2 -
07.07.2020 23:00:00 12,4 10,0 4 2 - - WNW 1017,2 -
07.07.2020 22:00:00 13,8 7,6 7 4 - - W 1017,1 -
07.07.2020 21:00:00 14,6 7,2 7 4 - - W 1017,2 -
07.07.2020 20:00:00 15,3 6,4 11 6 - - W 1017,4 -
07.07.2020 19:00:00 15,8 5,4 14 8 - - W 1017,6 -
07.07.2020 18:00:00 16,3 5,6 18 10 - - WNW 1017,8 -
07.07.2020 17:00:00 17,4 5,6 22 12 - - WNW 1017,8 -
07.07.2020 16:00:00 17,7 8,7 25 14 47 25 W 1017,8 35
07.07.2020 15:00:00 15,4 12,1 11 6 - - WSW 1017,7 30
07.07.2020 14:00:00 14,6 10,6 9 5 - - WSW 1017,9 10
07.07.2020 13:00:00 17,3 7,7 25 14 - - SW 1018,0 40
07.07.2020 12:00:00 15,7 7,7 22 12 - - SW 1018,7 40
07.07.2020 11:00:00 15,0 8,9 14 8 - - SW 1019,4 40
07.07.2020 10:00:00 14,5 10,4 14 8 - - SW 1019,5 35
07.07.2020 09:00:00 13,6 10,4 11 6 - - SW 1019,8 30
07.07.2020 08:00:00 12,1 10,0 11 6 - - WSW 1020,0 28
07.07.2020 07:00:00 9,8 9,4 7 4 - - WSW 1020,2 22
07.07.2020 06:00:00 8,1 7,6 7 4 - - W 1020,0 20
07.07.2020 05:00:00 8,6 8,1 7 4 - - WSW 1020,0 -
07.07.2020 04:00:00 8,7 8,1 4 2 - - WSW 1020,2 -
07.07.2020 03:00:00 9,5 8,7 7 4 - - WSW 1020,3 -
07.07.2020 02:00:00 10,2 9,3 7 4 - - W 1020,5 -
07.07.2020 01:00:00 10,6 9,9 7 4 - - WSW 1020,3 -
07.07.2020 00:00:00 11,0 10,1 7 4 - - WSW 1019,9 -
06.07.2020 23:00:00 11,4 10,3 7 4 - - W 1019,3 -
06.07.2020 22:00:00 12,7 10,1 14 8 - - W 1018,8 -
06.07.2020 21:00:00 13,1 10,8 11 6 - - W 1018,2 -
06.07.2020 20:00:00 14,7 10,4 11 6 - - WNW 1017,5 -
06.07.2020 19:00:00 15,3 10,6 14 8 - - NW 1016,7 -
06.07.2020 18:00:00 15,5 9,9 18 10 - - WNW 1016,1 -
06.07.2020 17:00:00 15,3 11,1 11 6 - - W 1015,2 -
06.07.2020 16:00:00 16,8 9,0 25 14 47 25 W 1014,3 40
06.07.2020 15:00:00 17,0 9,8 18 10 50 27 W 1013,7 35
06.07.2020 14:00:00 17,2 9,2 18 10 - - WNW 1012,7 35

tt = temperature
td = dewpoint
ff = wind speed
fx = gusts
dd = wind direction
ppp = reduced air pressure
vv = visibility

Next stations